Beaufort, NC

12:58 AM EDT on April 27, 2017 (GMT -0400)
Smith

Weather History for KMRH - February, 2011

Change the Weather History Date:

Tuesday, February 15, 2011

  Actual Average Record
Temperature  
Mean Temperature 46 °F -  
Max Temperature 54 °F 59 °F 74 °F (1950)
Min Temperature 34 °F 38 °F 21 °F (1969)
Degree Days  
Heating Degree Days 18    
Moisture  
Dew Point 29 °F    
Average Humidity 51    
Maximum Humidity 70    
Minimum Humidity 24    
Precipitation  
Precipitation 0.00 in - - ()
Sea Level Pressure  
Sea Level Pressure 30.30 in    
Wind  
Wind Speed 12 mph (NNE)    
Max Wind Speed 16 mph    
Max Gust Speed 23 mph    
Visibility 10 miles    
Events      
Averages and records for this station are not official NWS values.
T = Trace of Precipitation, MM = Missing Value Source: NWS Daily Summary

Daily Weather History Graph

Daily Weather History Graph

Search for Another Location

Airport or City:

Trip Planner

Search our weather history database for the weather conditions in past years. The results will help you decide how hot, cold, wet, or windy it might be!

Date:

Astronomy

Feb. 15, 2011 Rise Set
Actual Time 6:52 AM EST 5:49 PM EST
Civil Twilight 6:26 AM EST 6:15 PM EST
Nautical Twilight 5:57 AM EST 6:44 PM EST
Astronomical Twilight 5:27 AM EST 7:14 PM EST
Moon 3:02 PM EST (2/15) 4:37 AM EST (2/15)
Length of Visible Light 11h 48m
Length of Day
10h 56m
Waxing Gibbous, 90% of the Moon is Illuminated
Feb 15
Waxing Gibbous
Feb 18
Full
Feb 24
Last Quarter
Mar 4
New
Mar 12
First Quarter

Hourly Weather History & Observations

Time (EST) Temp. Windchill Dew Point Humidity Pressure Visibility Wind Dir Wind Speed Gust Speed Precip Events Conditions
12:56 AM 51.1 °F - 34.0 °F 52% 30.09 in 10.0 mi NNW 15.0 mph 20.7 mph N/A   Clear
1:56 AM 48.9 °F - 34.0 °F 56% 30.11 in 10.0 mi NNW 12.7 mph - N/A   Clear
2:56 AM 48.0 °F - 33.1 °F 56% 30.14 in 10.0 mi NW 11.5 mph - N/A   Clear
3:56 AM 46.0 °F 40.6 °F 34.0 °F 63% 30.16 in 10.0 mi NNW 11.5 mph - N/A   Clear
4:56 AM 44.1 °F 38.6 °F 33.1 °F 65% 30.20 in 10.0 mi NNW 10.4 mph - N/A   Clear
5:56 AM 45.0 °F 38.5 °F 28.9 °F 53% 30.23 in 10.0 mi North 13.8 mph - N/A   Clear
6:56 AM 43.0 °F 36.8 °F 30.0 °F 60% 30.28 in 10.0 mi North 11.5 mph - N/A   Clear
7:56 AM 45.0 °F 39.7 °F 28.9 °F 53% 30.30 in 10.0 mi North 10.4 mph - N/A   Clear
8:56 AM 48.9 °F - 28.0 °F 44% 30.32 in 10.0 mi North 12.7 mph - N/A   Clear
9:56 AM 51.1 °F - 26.1 °F 38% 30.34 in 10.0 mi North 16.1 mph - N/A   Clear
10:56 AM 54.0 °F - 21.0 °F 28% 30.35 in 10.0 mi North 13.8 mph 21.9 mph N/A   Clear
11:56 AM 54.0 °F - 24.1 °F 31% 30.35 in 10.0 mi North 15.0 mph 21.9 mph N/A   Clear
1:56 PM 54.0 °F - 18.0 °F 24% 30.35 in 10.0 mi NE 12.7 mph 23.0 mph N/A   Clear
4:56 PM 50.0 °F - 27.0 °F 41% 30.39 in 10.0 mi East 6.9 mph - N/A   Clear
5:56 PM 46.0 °F 41.9 °F 32.0 °F 58% 30.41 in 10.0 mi East 8.1 mph - N/A   Clear
6:56 PM 43.0 °F 40.3 °F 30.9 °F 62% 30.42 in 10.0 mi ENE 4.6 mph - N/A   Clear
9:56 PM 39.9 °F 35.1 °F 28.9 °F 65% 30.43 in 10.0 mi ENE 6.9 mph - N/A   Clear
10:56 PM 39.0 °F 36.8 °F 25.0 °F 57% 30.43 in 10.0 mi NE 3.5 mph - N/A   Clear
11:56 PM 34.0 °F 31.0 °F 25.0 °F 70% 30.43 in 10.0 mi NE 3.5 mph - N/A   Clear